MYTBM EDRY-EDMA

Flight info

Callsign MYTBM
Flight time 0h 34m
Altitude 120
Route BADLI/N0294F210 IFR Z729 LBU L173 RIXED Y161 RIDAR Z98 WLD
Aircraft TBM8/L-SDFGRWY/S

Departure

Time 2026-04-17 06:40
Airport Speyer Airfield (EDRY)

Arrival

Time 2026-04-17 07:14
Airport Augsburg Airport (EDMA)
Time Latitude Longitude Altitude Speed Heading
2026-04-17 06:28 49.30310 8.45422 330 ft 0 kts 255°
2026-04-17 06:36 49.30304 8.45389 330 ft 7 kts 271°
2026-04-17 06:36 49.30374 8.45344 329 ft 13 kts 343°
2026-04-17 06:37 49.30465 8.45306 328 ft 15 kts 346°
2026-04-17 06:37 49.30540 8.45276 328 ft 19 kts 344°
2026-04-17 06:37 49.30658 8.45227 327 ft 12 kts 346°
2026-04-17 06:37 49.30750 8.45180 329 ft 18 kts 340°
2026-04-17 06:38 49.30846 8.45129 329 ft 8 kts 342°
2026-04-17 06:38 49.30894 8.45109 328 ft 7 kts 344°
2026-04-17 06:38 49.30954 8.45084 329 ft 11 kts 342°
2026-04-17 06:38 49.30983 8.44995 329 ft 6 kts 263°
2026-04-17 06:39 49.30963 8.44979 327 ft 3 kts 160°
2026-04-17 06:39 49.30959 8.44981 328 ft 0 kts 162°
2026-04-17 06:39 49.30845 8.45028 329 ft 47 kts 165°
2026-04-17 06:39 49.30315 8.45243 342 ft 105 kts 165°
2026-04-17 06:40 49.29517 8.45566 581 ft 131 kts 165°
2026-04-17 06:40 49.28604 8.45897 1078 ft 139 kts 172°
2026-04-17 06:40 49.27595 8.45918 1584 ft 143 kts 184°
2026-04-17 06:40 49.26664 8.45841 2324 ft 133 kts 180°
2026-04-17 06:41 49.25714 8.45787 2886 ft 140 kts 181°
2026-04-17 06:41 49.24742 8.45724 3576 ft 139 kts 182°
2026-04-17 06:41 49.23768 8.45665 4178 ft 141 kts 181°
2026-04-17 06:41 49.22776 8.45612 4777 ft 144 kts 182°
2026-04-17 06:42 49.21770 8.45556 5365 ft 146 kts 182°
2026-04-17 06:42 49.20711 8.45493 5809 ft 158 kts 182°
2026-04-17 06:42 49.19606 8.45457 6401 ft 159 kts 179°
2026-04-17 06:42 49.18493 8.45427 6968 ft 161 kts 181°
2026-04-17 06:43 49.17367 8.45360 7511 ft 163 kts 181°
2026-04-17 06:43 49.16226 8.45293 8050 ft 165 kts 182°
2026-04-17 06:43 49.15068 8.45227 8595 ft 167 kts 182°
2026-04-17 06:43 49.13911 8.45165 9140 ft 169 kts 183°
2026-04-17 06:44 49.12723 8.45101 9685 ft 171 kts 183°
2026-04-17 06:44 49.11520 8.45036 10210 ft 174 kts 184°
2026-04-17 06:44 49.10305 8.44972 10691 ft 176 kts 184°
2026-04-17 06:44 49.09077 8.44906 11176 ft 177 kts 184°
2026-04-17 06:45 49.07837 8.44840 11662 ft 179 kts 184°
2026-04-17 06:45 49.06595 8.45008 12155 ft 183 kts 159°
2026-04-17 06:45 49.05597 8.46219 12631 ft 187 kts 129°
2026-04-17 06:45 49.04796 8.47797 13112 ft 189 kts 128°
2026-04-17 06:46 49.03979 8.49380 13597 ft 191 kts 128°
2026-04-17 06:46 49.03164 8.50958 14064 ft 193 kts 128°
2026-04-17 06:46 49.02317 8.52595 14498 ft 195 kts 128°
2026-04-17 06:46 49.01487 8.54201 14916 ft 196 kts 128°
2026-04-17 06:47 49.00637 8.55847 15342 ft 198 kts 128°
2026-04-17 06:47 48.99779 8.57502 15773 ft 200 kts 128°
2026-04-17 06:47 48.99187 8.59392 16219 ft 200 kts 98°
2026-04-17 06:47 48.98993 8.61502 16628 ft 203 kts 97°
2026-04-17 06:48 48.98765 8.63628 17066 ft 204 kts 97°
2026-04-17 06:48 48.98540 8.65770 17514 ft 206 kts 97°
2026-04-17 06:48 48.98316 8.67934 17936 ft 208 kts 97°
2026-04-17 06:48 48.98090 8.70113 18364 ft 209 kts 97°
2026-04-17 06:49 48.97861 8.72313 18748 ft 211 kts 97°
2026-04-17 06:49 48.97629 8.74531 19115 ft 213 kts 97°
2026-04-17 06:49 48.97396 8.76764 19482 ft 214 kts 97°
2026-04-17 06:49 48.97161 8.79014 19844 ft 216 kts 97°
2026-04-17 06:50 48.96922 8.81282 20212 ft 218 kts 97°
2026-04-17 06:50 48.96685 8.83539 20556 ft 219 kts 96°
2026-04-17 06:50 48.96442 8.85844 20913 ft 221 kts 96°
2026-04-17 06:50 48.96197 8.88171 21192 ft 227 kts 96°
2026-04-17 06:51 48.95934 8.90646 21203 ft 246 kts 97°
2026-04-17 06:51 48.95650 8.93294 21210 ft 261 kts 97°
2026-04-17 06:51 48.95355 8.96092 21210 ft 274 kts 97°
2026-04-17 06:51 48.95047 8.99011 21212 ft 284 kts 97°
2026-04-17 06:52 48.94732 9.01990 21212 ft 291 kts 97°
2026-04-17 06:52 48.94406 9.05070 21213 ft 297 kts 97°
2026-04-17 06:52 48.94072 9.08199 21215 ft 301 kts 97°
2026-04-17 06:52 48.93733 9.11363 21214 ft 305 kts 97°
2026-04-17 06:53 48.93393 9.14555 21213 ft 307 kts 97°
2026-04-17 06:53 48.93049 9.17778 21214 ft 309 kts 98°
2026-04-17 06:53 48.92699 9.21014 21215 ft 310 kts 98°
2026-04-17 06:53 48.92351 9.24253 21213 ft 311 kts 97°
2026-04-17 06:54 48.92000 9.27511 21212 ft 312 kts 97°
2026-04-17 06:54 48.91652 9.30727 21212 ft 312 kts 97°
2026-04-17 06:54 48.91300 9.33986 21213 ft 312 kts 96°
2026-04-17 06:54 48.91078 9.37266 21212 ft 312 kts 94°
2026-04-17 06:55 48.90832 9.40545 21209 ft 312 kts 95°
2026-04-17 06:55 48.90572 9.43821 21211 ft 312 kts 94°
2026-04-17 06:55 48.90333 9.47107 21213 ft 312 kts 94°
2026-04-17 06:55 48.90096 9.50391 21220 ft 312 kts 94°
2026-04-17 06:56 48.89852 9.53677 21218 ft 312 kts 94°
2026-04-17 06:56 48.89608 9.56914 21220 ft 312 kts 94°
2026-04-17 06:56 48.89363 9.60191 21222 ft 312 kts 94°
2026-04-17 06:56 48.89117 9.63476 21223 ft 312 kts 94°
2026-04-17 06:57 48.88872 9.66755 21225 ft 313 kts 94°
2026-04-17 06:57 48.88620 9.70041 21226 ft 313 kts 94°
2026-04-17 06:57 48.88372 9.73332 21227 ft 313 kts 94°
2026-04-17 06:57 48.88122 9.76620 21227 ft 313 kts 94°
2026-04-17 06:58 48.87869 9.79903 21226 ft 313 kts 94°
2026-04-17 06:58 48.87616 9.83188 21226 ft 313 kts 94°
2026-04-17 06:58 48.87367 9.86429 21229 ft 313 kts 94°
2026-04-17 06:58 48.87111 9.89714 21229 ft 313 kts 94°
2026-04-17 06:59 48.86854 9.93006 21227 ft 313 kts 94°
2026-04-17 06:59 48.86598 9.96295 21224 ft 313 kts 94°
2026-04-17 06:59 48.86338 9.99578 21224 ft 313 kts 94°
2026-04-17 06:59 48.86082 10.02858 21234 ft 313 kts 94°
2026-04-17 07:00 48.85823 10.06139 21231 ft 313 kts 94°
2026-04-17 07:00 48.85566 10.09375 21230 ft 313 kts 94°
2026-04-17 07:00 48.85304 10.12660 21235 ft 313 kts 94°
2026-04-17 07:00 48.85041 10.15949 21234 ft 313 kts 94°
2026-04-17 07:01 48.84778 10.19238 21232 ft 314 kts 94°
2026-04-17 07:01 48.84514 10.22521 21250 ft 313 kts 94°
2026-04-17 07:01 48.84250 10.25810 21250 ft 313 kts 94°
2026-04-17 07:01 48.83982 10.29091 21251 ft 313 kts 94°
2026-04-17 07:02 48.83715 10.32384 21250 ft 313 kts 94°
2026-04-17 07:02 48.83446 10.35703 20902 ft 324 kts 94°
2026-04-17 07:02 48.83146 10.39164 20395 ft 337 kts 98°
2026-04-17 07:02 48.82285 10.42525 19884 ft 348 kts 120°
2026-04-17 07:03 48.80778 10.45367 19397 ft 353 kts 134°
2026-04-17 07:03 48.79058 10.48042 18906 ft 355 kts 134°
2026-04-17 07:03 48.77357 10.50760 18391 ft 355 kts 133°
2026-04-17 07:03 48.75672 10.53479 17814 ft 353 kts 133°
2026-04-17 07:04 48.73986 10.56169 17240 ft 350 kts 134°
2026-04-17 07:04 48.72316 10.58829 16675 ft 347 kts 133°
2026-04-17 07:04 48.70659 10.61474 16119 ft 344 kts 133°
2026-04-17 07:04 48.69017 10.64091 15572 ft 341 kts 133°
2026-04-17 07:05 48.67388 10.66685 15029 ft 337 kts 134°
2026-04-17 07:05 48.65779 10.69242 14503 ft 334 kts 134°
2026-04-17 07:05 48.64202 10.71745 13983 ft 331 kts 134°
2026-04-17 07:05 48.62620 10.74256 13399 ft 327 kts 134°
2026-04-17 07:06 48.61057 10.76732 12826 ft 323 kts 134°
2026-04-17 07:06 48.59637 10.79319 12246 ft 318 kts 120°
2026-04-17 07:06 48.58864 10.82411 11677 ft 313 kts 102°
2026-04-17 07:06 48.58675 10.85602 11133 ft 306 kts 90°
2026-04-17 07:07 48.58616 10.88801 10607 ft 302 kts 92°
2026-04-17 07:07 48.58509 10.91952 10076 ft 298 kts 92°
2026-04-17 07:07 48.58420 10.95057 9491 ft 293 kts 91°
2026-04-17 07:07 48.58346 10.98118 8913 ft 289 kts 92°
2026-04-17 07:08 48.58263 11.01101 8354 ft 285 kts 92°
2026-04-17 07:08 48.58176 11.04090 7917 ft 277 kts 92°
2026-04-17 07:08 48.58103 11.06927 7526 ft 270 kts 92°
2026-04-17 07:08 48.57758 11.09673 7151 ft 266 kts 113°
2026-04-17 07:09 48.56740 11.11974 6790 ft 264 kts 132°
2026-04-17 07:09 48.55251 11.13560 6410 ft 264 kts 154°
2026-04-17 07:09 48.53495 11.14290 6043 ft 260 kts 168°
2026-04-17 07:09 48.51727 11.14783 5694 ft 257 kts 168°
2026-04-17 07:10 48.49971 11.15046 5336 ft 248 kts 185°
2026-04-17 07:10 48.48479 11.14245 4967 ft 216 kts 206°
2026-04-17 07:10 48.47255 11.13042 4573 ft 205 kts 213°
2026-04-17 07:10 48.46090 11.11826 4141 ft 203 kts 213°
2026-04-17 07:11 48.45001 11.10539 3839 ft 196 kts 229°
2026-04-17 07:11 48.44611 11.08690 3534 ft 186 kts 275°
2026-04-17 07:11 48.44950 11.06847 3249 ft 179 kts 289°
2026-04-17 07:11 48.45118 11.05050 2991 ft 175 kts 257°
2026-04-17 07:12 48.44769 11.03388 2994 ft 159 kts 251°
2026-04-17 07:12 48.44438 11.01812 2840 ft 161 kts 251°
2026-04-17 07:12 48.44099 11.00193 2585 ft 163 kts 250°
2026-04-17 07:12 48.43760 10.98703 2328 ft 134 kts 250°
2026-04-17 07:13 48.43481 10.97480 2127 ft 109 kts 250°
2026-04-17 07:13 48.43249 10.96464 1931 ft 100 kts 250°
2026-04-17 07:13 48.43032 10.95469 1794 ft 100 kts 250°
2026-04-17 07:13 48.42811 10.94480 1624 ft 97 kts 251°
2026-04-17 07:14 48.42608 10.93557 1519 ft 82 kts 250°
2026-04-17 07:14 48.42472 10.92952 1514 ft 36 kts 251°
2026-04-17 07:14 48.42431 10.92775 1514 ft 12 kts 240°
2026-04-17 07:14 48.42368 10.92786 1516 ft 7 kts 97°
2026-04-17 07:15 48.42389 10.92891 1516 ft 16 kts 71°
2026-04-17 07:15 48.42424 10.93047 1516 ft 11 kts 72°
2026-04-17 07:15 48.42453 10.93172 1515 ft 15 kts 70°
2026-04-17 07:15 48.42479 10.93290 1515 ft 8 kts 72°
2026-04-17 07:16 48.42496 10.93365 1515 ft 9 kts 73°
2026-04-17 07:16 48.42516 10.93463 1516 ft 7 kts 87°
2026-04-17 07:16 48.42480 10.93508 1516 ft 7 kts 146°
2026-04-17 07:16 48.42481 10.93552 1516 ft 0 kts 72°